Time,TemperatureF,DewpointF,PressureIn,WindDirection,WindDirectionDegrees,WindSpeedMPH,WindSpeedGustMPH,Humidity,HourlyPrecipIn,Conditions,Clouds,dailyrainin,SoftwareType,DateUTC
2013-05-13 00:00:00,52.0,50.9,30.20,NE,34,0.0,0.0,96,0.00,,---,0.01,VWS V14.01,2013-05-13 05:00:00,
2013-05-13 00:05:00,52.0,50.9,30.20,NE,34,0.0,0.0,96,0.00,,---,0.01,VWS V14.01,2013-05-13 05:05:00,
2013-05-13 00:10:00,51.8,50.7,30.20,NE,34,0.0,0.0,96,0.00,,---,0.00,VWS V14.01,2013-05-13 05:10:00,
2013-05-13 00:15:00,51.8,50.7,30.20,NE,34,0.0,0.0,96,0.00,,---,0.00,VWS V14.01,2013-05-13 05:15:00,
2013-05-13 00:20:00,51.6,50.5,30.20,NE,34,0.0,0.0,96,0.00,,---,0.00,VWS V14.01,2013-05-13 05:20:00,
2013-05-13 00:25:00,51.4,50.3,30.20,NE,34,0.0,0.0,96,0.00,,---,0.00,VWS V14.01,2013-05-13 05:25:00,
2013-05-13 00:30:00,51.3,50.2,30.20,NE,34,0.0,0.0,96,0.00,,---,0.00,VWS V14.01,2013-05-13 05:30:00,
2013-05-13 00:35:00,51.3,50.2,30.20,NE,34,0.0,0.0,96,0.00,,---,0.00,VWS V14.01,2013-05-13 05:35:00,
2013-05-13 00:36:00,51.3,50.2,30.20,NE,34,0.0,0.0,96,0.00,,---,0.00,VWS V14.01,2013-05-13 05:36:00,
2013-05-13 00:40:00,51.4,50.3,30.19,NE,34,0.0,0.0,96,0.00,,---,0.00,VWS V14.01,2013-05-13 05:40:00,
2013-05-13 00:45:00,51.3,50.2,30.19,NE,34,0.0,0.0,96,0.00,,---,0.00,VWS V14.01,2013-05-13 05:45:00,
2013-05-13 00:50:00,51.2,50.1,30.19,NE,34,0.0,0.0,96,0.00,,---,0.00,VWS V14.01,2013-05-13 05:50:00,
2013-05-13 00:55:00,51.0,49.9,30.19,NE,34,0.0,0.0,96,0.00,,---,0.00,VWS V14.01,2013-05-13 05:55:00,
2013-05-13 01:00:00,50.8,49.7,30.19,NE,34,0.0,0.0,96,0.00,,---,0.00,VWS V14.01,2013-05-13 06:00:00,
2013-05-13 01:05:00,50.6,49.5,30.20,NE,34,0.0,0.0,96,0.00,,---,0.00,VWS V14.01,2013-05-13 06:05:00,
2013-05-13 01:06:00,50.6,49.5,30.20,NE,34,0.0,0.0,96,0.00,,---,0.00,VWS V14.01,2013-05-13 06:06:00,
2013-05-13 01:15:00,50.6,49.8,30.19,NE,34,0.0,0.0,97,0.00,,---,0.00,VWS V14.01,2013-05-13 06:15:00,
2013-05-13 01:20:00,50.6,49.8,30.19,NE,34,0.0,0.0,97,0.00,,---,0.00,VWS V14.01,2013-05-13 06:20:00,
2013-05-13 01:25:00,50.5,49.4,30.19,NE,34,0.0,0.0,96,0.00,,---,0.00,VWS V14.01,2013-05-13 06:25:00,
2013-05-13 01:30:00,50.5,49.4,30.19,NE,34,0.0,0.0,96,0.00,,---,0.00,VWS V14.01,2013-05-13 06:30:00,
2013-05-13 01:35:00,50.3,49.2,30.20,NE,34,0.0,0.0,96,0.00,,---,0.00,VWS V14.01,2013-05-13 06:35:00,
2013-05-13 01:36:00,50.3,49.2,30.20,NE,34,0.0,0.0,96,0.00,,---,0.00,VWS V14.01,2013-05-13 06:36:00,
2013-05-13 01:40:00,50.1,49.0,30.20,NE,34,0.0,0.0,96,0.00,,---,0.00,VWS V14.01,2013-05-13 06:40:00,
2013-05-13 01:45:00,50.0,49.2,30.19,NE,34,0.0,0.0,97,0.00,,---,0.00,VWS V14.01,2013-05-13 06:45:00,
2013-05-13 01:50:00,49.9,48.8,30.19,NE,34,0.0,0.0,96,0.00,,---,0.00,VWS V14.01,2013-05-13 06:50:00,
2013-05-13 01:55:00,49.9,48.8,30.20,NE,34,0.0,0.0,96,0.00,,---,0.00,VWS V14.01,2013-05-13 06:55:00,
2013-05-13 02:00:00,49.8,48.7,30.19,NE,34,0.0,0.0,96,0.00,,---,0.00,VWS V14.01,2013-05-13 07:00:00,
2013-05-13 02:05:00,49.7,48.9,30.19,NE,34,0.0,0.0,97,0.00,,---,0.00,VWS V14.01,2013-05-13 07:05:00,
2013-05-13 02:06:00,49.6,48.8,30.19,NE,34,0.0,0.0,97,0.00,,---,0.00,VWS V14.01,2013-05-13 07:06:00,
2013-05-13 02:10:00,49.6,48.8,30.19,NE,34,0.0,0.0,97,0.00,,---,0.00,VWS V14.01,2013-05-13 07:10:00,
2013-05-13 02:15:00,49.5,48.7,30.19,NE,34,0.0,0.0,97,0.00,,---,0.00,VWS V14.01,2013-05-13 07:15:00,
2013-05-13 02:20:00,49.5,48.7,30.19,NE,34,0.0,0.0,97,0.00,,---,0.00,VWS V14.01,2013-05-13 07:20:00,
2013-05-13 02:25:00,49.5,48.7,30.19,NE,34,0.0,0.0,97,0.00,,---,0.00,VWS V14.01,2013-05-13 07:25:00,
2013-05-13 02:30:00,49.4,48.6,30.19,NE,34,0.0,0.0,97,0.00,,---,0.00,VWS V14.01,2013-05-13 07:30:00,
2013-05-13 02:35:00,49.2,48.4,30.19,NE,34,0.0,0.0,97,0.00,,---,0.00,VWS V14.01,2013-05-13 07:35:00,
2013-05-13 02:40:00,49.2,48.4,30.19,NE,34,0.0,0.0,97,0.00,,---,0.00,VWS V14.01,2013-05-13 07:40:00,
2013-05-13 02:45:00,49.2,48.4,30.19,NE,34,0.0,0.0,97,0.00,,---,0.00,VWS V14.01,2013-05-13 07:45:00,
2013-05-13 02:50:00,49.2,48.4,30.18,NE,34,0.0,0.0,97,0.00,,---,0.00,VWS V14.01,2013-05-13 07:50:00,
2013-05-13 02:55:00,49.1,48.3,30.19,NE,34,0.0,0.0,97,0.00,,---,0.00,VWS V14.01,2013-05-13 07:55:00,
2013-05-13 03:00:00,49.0,48.2,30.19,NE,34,0.0,0.0,97,0.00,,---,0.00,VWS V14.01,2013-05-13 08:00:00,
2013-05-13 03:05:00,48.9,48.1,30.19,NE,34,0.0,0.0,97,0.00,,---,0.00,VWS V14.01,2013-05-13 08:05:00,
2013-05-13 03:06:00,48.9,48.1,30.19,NE,34,0.0,0.0,97,0.00,,---,0.00,VWS V14.01,2013-05-13 08:06:00,
2013-05-13 03:15:00,48.7,47.9,30.19,NE,34,0.0,0.0,97,0.00,,---,0.00,VWS V14.01,2013-05-13 08:15:00,
2013-05-13 03:20:00,48.7,47.9,30.19,NE,34,0.0,0.0,97,0.00,,---,0.00,VWS V14.01,2013-05-13 08:20:00,
2013-05-13 03:25:00,48.4,47.6,30.19,NE,34,0.0,0.0,97,0.00,,---,0.00,VWS V14.01,2013-05-13 08:25:00,
2013-05-13 03:30:00,48.4,47.6,30.19,NE,34,0.0,0.0,97,0.00,,---,0.00,VWS V14.01,2013-05-13 08:30:00,
2013-05-13 03:35:00,48.5,47.7,30.19,NE,34,0.0,0.0,97,0.00,,---,0.00,VWS V14.01,2013-05-13 08:35:00,
2013-05-13 03:36:00,48.4,47.6,30.19,NE,34,0.0,0.0,97,0.00,,---,0.00,VWS V14.01,2013-05-13 08:36:00,
2013-05-13 03:40:00,48.5,47.7,30.19,NE,34,0.0,0.0,97,0.00,,---,0.00,VWS V14.01,2013-05-13 08:40:00,
2013-05-13 03:45:00,48.3,47.5,30.19,NE,34,0.0,0.0,97,0.00,,---,0.00,VWS V14.01,2013-05-13 08:45:00,
2013-05-13 03:50:00,48.2,47.4,30.19,NE,34,0.0,0.0,97,0.00,,---,0.00,VWS V14.01,2013-05-13 08:50:00,
2013-05-13 03:55:00,48.2,47.4,30.19,NE,34,0.0,0.0,97,0.00,,---,0.00,VWS V14.01,2013-05-13 08:55:00,
2013-05-13 04:00:00,48.2,47.4,30.19,NE,34,0.0,0.0,97,0.00,,---,0.00,VWS V14.01,2013-05-13 09:00:00,
2013-05-13 04:05:00,48.1,47.3,30.20,NE,34,0.0,0.0,97,0.00,,---,0.00,VWS V14.01,2013-05-13 09:05:00,
2013-05-13 04:10:00,48.0,47.2,30.20,NE,34,0.0,0.0,97,0.00,,---,0.00,VWS V14.01,2013-05-13 09:10:00,
2013-05-13 04:15:00,47.9,47.1,30.20,NE,34,0.0,0.0,97,0.00,,---,0.00,VWS V14.01,2013-05-13 09:15:00,
2013-05-13 04:20:00,47.8,47.0,30.20,NE,34,0.0,0.0,97,0.00,,---,0.00,VWS V14.01,2013-05-13 09:20:00,
2013-05-13 04:25:00,47.9,47.1,30.19,NE,34,0.0,0.0,97,0.00,,---,0.00,VWS V14.01,2013-05-13 09:25:00,
2013-05-13 04:30:00,47.8,47.0,30.19,NE,34,0.0,0.0,97,0.00,,---,0.00,VWS V14.01,2013-05-13 09:30:00,
2013-05-13 04:35:00,47.8,47.0,30.19,NE,34,0.0,0.0,97,0.00,,---,0.00,VWS V14.01,2013-05-13 09:35:00,
2013-05-13 04:36:00,47.7,46.9,30.19,NE,34,0.0,0.0,97,0.00,,---,0.00,VWS V14.01,2013-05-13 09:36:00,
2013-05-13 04:40:00,47.6,46.8,30.20,NE,34,0.0,0.0,97,0.00,,---,0.00,VWS V14.01,2013-05-13 09:40:00,
2013-05-13 04:45:00,47.4,46.6,30.20,NE,34,0.0,0.0,97,0.00,,---,0.00,VWS V14.01,2013-05-13 09:45:00,
2013-05-13 04:50:00,47.5,46.7,30.20,NE,34,0.0,0.0,97,0.00,,---,0.00,VWS V14.01,2013-05-13 09:50:00,
2013-05-13 04:56:00,47.4,46.6,30.21,NE,34,0.0,0.0,97,0.00,,---,0.00,VWS V14.01,2013-05-13 09:56:00,
2013-05-13 05:01:00,47.3,46.5,30.21,NE,34,0.0,0.0,97,0.00,,---,0.00,VWS V14.01,2013-05-13 10:01:00,
2013-05-13 05:06:00,47.2,46.4,30.21,NE,34,0.0,0.0,97,0.00,,---,0.00,VWS V14.01,2013-05-13 10:06:00,
2013-05-13 05:16:00,47.1,46.3,30.21,NE,34,0.0,0.0,97,0.00,,---,0.00,VWS V14.01,2013-05-13 10:16:00,
2013-05-13 05:21:00,47.1,46.3,30.21,NE,34,0.0,0.0,97,0.00,,---,0.00,VWS V14.01,2013-05-13 10:21:00,
2013-05-13 05:26:00,47.0,46.2,30.21,NE,34,0.0,0.0,97,0.00,,---,0.00,VWS V14.01,2013-05-13 10:26:00,
2013-05-13 05:31:00,46.8,46.0,30.21,NE,34,0.0,0.0,97,0.00,,---,0.00,VWS V14.01,2013-05-13 10:31:00,
2013-05-13 05:36:00,46.8,46.0,30.22,NE,34,0.0,0.0,97,0.00,,---,0.00,VWS V14.01,2013-05-13 10:36:00,
2013-05-13 05:41:00,46.9,46.1,30.22,NE,34,0.0,0.0,97,0.00,,---,0.00,VWS V14.01,2013-05-13 10:41:00,
2013-05-13 05:46:00,46.8,46.0,30.22,NE,34,0.0,1.0,97,0.00,,---,0.00,VWS V14.01,2013-05-13 10:46:00,
2013-05-13 05:51:00,46.6,45.8,30.22,NE,34,0.0,1.0,97,0.00,,---,0.00,VWS V14.01,2013-05-13 10:51:00,
2013-05-13 05:56:00,46.5,45.7,30.22,NE,34,0.0,1.0,97,0.00,,---,0.00,VWS V14.01,2013-05-13 10:56:00,
2013-05-13 06:01:00,46.4,45.6,30.23,NNW,348,0.0,1.0,97,0.00,,---,0.00,VWS V14.01,2013-05-13 11:01:00,
2013-05-13 06:06:00,46.4,45.6,30.23,NNW,348,0.0,1.0,97,0.00,,---,0.00,VWS V14.01,2013-05-13 11:06:00,
2013-05-13 06:11:00,46.3,45.5,30.23,NNW,348,0.0,0.0,97,0.00,,---,0.00,VWS V14.01,2013-05-13 11:11:00,
2013-05-13 06:16:00,46.4,45.6,30.23,NNW,348,0.0,0.0,97,0.00,,---,0.00,VWS V14.01,2013-05-13 11:16:00,
2013-05-13 06:21:00,46.5,45.7,30.23,NNW,348,0.0,0.0,97,0.00,,---,0.00,VWS V14.01,2013-05-13 11:21:00,
2013-05-13 06:26:00,46.4,45.6,30.24,North,355,0.0,0.0,97,0.00,,---,0.00,VWS V14.01,2013-05-13 11:26:00,
2013-05-13 06:31:00,46.4,45.6,30.24,North,355,0.0,0.0,97,0.00,,---,0.00,VWS V14.01,2013-05-13 11:31:00,
2013-05-13 06:36:00,46.3,45.5,30.24,North,355,0.0,0.0,97,0.00,,---,0.00,VWS V14.01,2013-05-13 11:36:00,
2013-05-13 06:41:00,46.5,45.7,30.25,North,355,0.0,0.0,97,0.00,,---,0.00,VWS V14.01,2013-05-13 11:41:00,
2013-05-13 06:46:00,46.7,45.9,30.25,North,355,0.0,0.0,97,0.00,,---,0.00,VWS V14.01,2013-05-13 11:46:00,
2013-05-13 06:51:00,46.7,45.9,30.25,North,355,0.0,0.0,97,0.00,,---,0.00,VWS V14.01,2013-05-13 11:51:00,
2013-05-13 06:56:00,46.9,46.1,30.25,North,355,0.0,0.0,97,0.00,,---,0.00,VWS V14.01,2013-05-13 11:56:00,
2013-05-13 07:01:00,47.0,46.2,30.26,North,355,0.0,0.0,97,0.00,,---,0.00,VWS V14.01,2013-05-13 12:01:00,
2013-05-13 07:06:00,47.2,46.4,30.26,North,355,0.0,0.0,97,0.00,,---,0.00,VWS V14.01,2013-05-13 12:06:00,
2013-05-13 07:16:00,48.1,47.6,30.26,NE,51,0.0,0.0,98,0.00,,---,0.00,VWS V14.01,2013-05-13 12:16:00,
2013-05-13 07:21:00,48.5,47.7,30.26,NE,51,0.0,0.0,97,0.00,,---,0.00,VWS V14.01,2013-05-13 12:21:00,
2013-05-13 07:26:00,48.7,48.2,30.26,NE,51,0.0,0.0,98,0.00,,---,0.00,VWS V14.01,2013-05-13 12:26:00,
2013-05-13 07:31:00,49.0,48.2,30.26,NE,51,0.0,0.0,97,0.00,,---,0.00,VWS V14.01,2013-05-13 12:31:00,
2013-05-13 07:36:00,49.4,48.9,30.27,NE,51,0.0,0.0,98,0.00,,---,0.00,VWS V14.01,2013-05-13 12:36:00,
2013-05-13 07:41:00,50.0,49.5,30.27,NE,51,0.0,0.0,98,0.00,,---,0.00,VWS V14.01,2013-05-13 12:41:00,
2013-05-13 07:46:00,51.1,50.6,30.27,NE,42,0.0,1.0,98,0.00,,---,0.00,VWS V14.01,2013-05-13 12:46:00,
2013-05-13 07:51:00,51.9,51.4,30.27,NE,42,0.0,1.0,98,0.00,,---,0.00,VWS V14.01,2013-05-13 12:51:00,
2013-05-13 07:56:00,53.5,53.0,30.27,NE,42,0.0,1.0,98,0.00,,---,0.00,VWS V14.01,2013-05-13 12:56:00,
2013-05-13 08:01:00,54.7,54.2,30.28,NE,42,0.0,1.0,98,0.00,,---,0.00,VWS V14.01,2013-05-13 13:01:00,
2013-05-13 08:06:00,54.8,54.2,30.27,NE,36,0.0,1.0,98,0.00,,---,0.00,VWS V14.01,2013-05-13 13:06:00,
2013-05-13 08:11:00,54.9,54.1,30.27,North,9,0.0,0.0,97,0.00,,---,0.00,VWS V14.01,2013-05-13 13:11:00,
2013-05-13 08:16:00,55.7,54.9,30.27,North,9,0.0,0.0,97,0.00,,---,0.00,VWS V14.01,2013-05-13 13:16:00,
2013-05-13 08:21:00,56.7,55.6,30.28,North,9,0.0,0.0,96,0.00,,---,0.00,VWS V14.01,2013-05-13 13:21:00,
2013-05-13 08:26:00,58.0,56.9,30.28,North,9,0.0,0.0,96,0.00,,---,0.00,VWS V14.01,2013-05-13 13:26:00,
2013-05-13 08:31:00,58.6,56.0,30.27,North,9,0.0,0.0,91,0.00,,---,0.00,VWS V14.01,2013-05-13 13:31:00,
2013-05-13 08:36:00,59.6,56.0,30.27,North,10,0.0,0.0,88,0.00,,---,0.00,VWS V14.01,2013-05-13 13:36:00,
2013-05-13 08:41:00,60.5,56.6,30.28,North,10,0.0,1.0,87,0.00,,---,0.00,VWS V14.01,2013-05-13 13:41:00,
2013-05-13 08:46:00,61.9,55.3,30.28,North,11,1.0,2.0,79,0.00,,---,0.00,VWS V14.01,2013-05-13 13:46:00,
2013-05-13 08:51:00,62.5,54.1,30.28,North,11,0.0,2.0,74,0.00,,---,0.00,VWS V14.01,2013-05-13 13:51:00,
2013-05-13 08:56:00,63.6,52.9,30.28,North,11,2.0,2.0,68,0.00,,---,0.00,VWS V14.01,2013-05-13 13:56:00,
2013-05-13 09:01:00,63.9,55.1,30.29,North,11,0.0,2.0,73,0.00,,---,0.00,VWS V14.01,2013-05-13 14:01:00,
2013-05-13 09:06:00,64.5,50.8,30.29,NNE,29,0.0,0.0,61,0.00,,---,0.00,VWS V14.01,2013-05-13 14:06:00,
2013-05-13 09:11:00,64.9,53.3,30.29,NNE,21,0.0,1.0,66,0.00,,---,0.00,VWS V14.01,2013-05-13 14:11:00,
2013-05-13 09:16:00,65.8,54.5,30.30,NE,45,1.0,2.0,67,0.00,,---,0.00,VWS V14.01,2013-05-13 14:16:00,
2013-05-13 09:21:00,66.1,50.4,30.30,NE,45,0.0,2.0,57,0.00,,---,0.00,VWS V14.01,2013-05-13 14:21:00,
2013-05-13 09:26:00,66.6,53.2,30.30,NE,45,0.0,2.0,62,0.00,,---,0.00,VWS V14.01,2013-05-13 14:26:00,
2013-05-13 09:31:00,66.7,51.9,30.30,NE,45,0.0,2.0,59,0.00,,---,0.00,VWS V14.01,2013-05-13 14:31:00,
2013-05-13 09:36:00,66.7,52.4,30.30,SE,134,0.0,2.0,60,0.00,,---,0.00,VWS V14.01,2013-05-13 14:36:00,
2013-05-13 09:41:00,67.2,53.8,30.30,SE,137,0.0,2.0,62,0.00,,---,0.00,VWS V14.01,2013-05-13 14:41:00,
2013-05-13 09:46:00,67.7,52.9,30.30,ENE,65,1.0,2.0,59,0.00,,---,0.00,VWS V14.01,2013-05-13 14:46:00,
2013-05-13 09:52:00,68.0,51.7,30.31,WSW,250,0.0,3.0,56,0.00,,---,0.00,VWS V14.01,2013-05-13 14:52:00,
2013-05-13 09:57:00,68.8,53.4,30.30,NE,38,0.0,3.0,58,0.00,,---,0.00,VWS V14.01,2013-05-13 14:57:00,
2013-05-13 10:02:00,69.4,53.0,30.31,ENE,78,0.0,3.0,56,0.00,,---,0.00,VWS V14.01,2013-05-13 15:02:00,
2013-05-13 10:07:00,69.6,49.1,30.31,ESE,115,0.0,1.0,48,0.00,,---,0.00,VWS V14.01,2013-05-13 15:07:00,
2013-05-13 10:12:00,69.7,48.6,30.31,East,96,1.0,3.0,47,0.00,,---,0.00,VWS V14.01,2013-05-13 15:12:00,
2013-05-13 10:17:00,69.9,48.2,30.31,East,85,0.0,3.0,46,0.00,,---,0.00,VWS V14.01,2013-05-13 15:17:00,
2013-05-13 10:22:00,70.9,50.8,30.31,East,84,0.0,3.0,49,0.00,,---,0.00,VWS V14.01,2013-05-13 15:22:00,
2013-05-13 10:27:00,70.7,48.9,30.31,SSE,167,1.0,3.0,46,0.00,,---,0.00,VWS V14.01,2013-05-13 15:27:00,
2013-05-13 10:32:00,70.9,49.7,30.31,East,94,1.0,3.0,47,0.00,,---,0.00,VWS V14.01,2013-05-13 15:32:00,
2013-05-13 10:36:00,71.0,47.4,30.31,ESE,109,2.0,3.0,43,0.00,,---,0.00,VWS V14.01,2013-05-13 15:36:00,
2013-05-13 10:37:00,70.9,47.3,30.31,SSE,166,2.0,2.0,43,0.00,,---,0.00,VWS V14.01,2013-05-13 15:37:00,
2013-05-13 10:42:00,71.2,49.4,30.31,ENE,64,2.0,3.0,46,0.00,,---,0.00,VWS V14.01,2013-05-13 15:42:00,
2013-05-13 10:47:00,71.5,48.5,30.31,ENE,69,2.0,5.0,44,0.00,,---,0.00,VWS V14.01,2013-05-13 15:47:00,
2013-05-13 10:52:00,71.5,47.2,30.31,ENE,73,3.0,5.0,42,0.00,,---,0.00,VWS V14.01,2013-05-13 15:52:00,
2013-05-13 10:57:00,71.7,48.7,30.31,ENE,74,1.0,5.0,44,0.00,,---,0.00,VWS V14.01,2013-05-13 15:57:00,
2013-05-13 11:02:00,72.3,51.0,30.30,ESE,103,2.0,5.0,47,0.00,,---,0.00,VWS V14.01,2013-05-13 16:02:00,
2013-05-13 11:06:00,72.2,49.1,30.30,ENE,78,4.0,5.0,44,0.00,,---,0.00,VWS V14.01,2013-05-13 16:06:00,
2013-05-13 11:07:00,72.2,49.1,30.30,East,94,3.0,4.0,44,0.00,,---,0.00,VWS V14.01,2013-05-13 16:07:00,
2013-05-13 11:12:00,71.9,47.0,30.30,SE,124,2.0,5.0,41,0.00,,---,0.00,VWS V14.01,2013-05-13 16:12:00,
2013-05-13 11:17:00,72.6,50.7,30.30,ESE,115,0.0,5.0,46,0.00,,---,0.00,VWS V14.01,2013-05-13 16:17:00,
2013-05-13 11:22:00,73.1,49.9,30.30,East,84,3.0,5.0,44,0.00,,---,0.00,VWS V14.01,2013-05-13 16:22:00,
2013-05-13 11:27:00,73.2,49.4,30.29,East,94,3.0,5.0,43,0.00,,---,0.00,VWS V14.01,2013-05-13 16:27:00,
2013-05-13 11:32:00,73.0,49.2,30.30,ENE,76,4.0,5.0,43,0.00,,---,0.00,VWS V14.01,2013-05-13 16:32:00,
2013-05-13 11:36:00,73.6,49.1,30.30,East,96,2.0,5.0,42,0.00,,---,0.00,VWS V14.01,2013-05-13 16:36:00,
2013-05-13 11:37:00,73.7,50.5,30.30,East,82,2.0,5.0,44,0.00,,---,0.00,VWS V14.01,2013-05-13 16:37:00,
2013-05-13 11:42:00,73.9,50.6,30.29,East,88,2.0,5.0,44,0.00,,---,0.00,VWS V14.01,2013-05-13 16:42:00,
2013-05-13 11:47:00,73.9,49.4,30.29,ESE,107,2.0,5.0,42,0.00,,---,0.00,VWS V14.01,2013-05-13 16:47:00,
2013-05-13 11:52:00,74.2,49.0,30.29,East,92,0.0,5.0,41,0.00,,---,0.00,VWS V14.01,2013-05-13 16:52:00,
2013-05-13 11:57:00,74.5,49.3,30.30,East,91,0.0,5.0,41,0.00,,---,0.00,VWS V14.01,2013-05-13 16:57:00,
2013-05-13 12:02:00,74.7,52.6,30.30,ENE,76,1.0,5.0,46,0.00,,---,0.00,VWS V14.01,2013-05-13 17:02:00,
2013-05-13 12:06:00,74.8,50.8,30.30,ENE,78,1.0,5.0,43,0.00,,---,0.00,VWS V14.01,2013-05-13 17:06:00,
2013-05-13 12:07:00,74.9,52.8,30.30,NE,47,2.0,3.0,46,0.00,,---,0.00,VWS V14.01,2013-05-13 17:07:00,
2013-05-13 12:12:00,74.5,49.3,30.30,SE,126,2.0,5.0,41,0.00,,---,0.00,VWS V14.01,2013-05-13 17:12:00,
2013-05-13 12:17:00,75.1,51.7,30.29,ESE,113,2.0,5.0,44,0.00,,---,0.00,VWS V14.01,2013-05-13 17:17:00,
2013-05-13 12:22:00,75.7,54.1,30.29,ESE,113,2.0,5.0,47,0.00,,---,0.00,VWS V14.01,2013-05-13 17:22:00,
2013-05-13 12:27:00,75.9,53.7,30.29,North,9,0.0,5.0,46,0.00,,---,0.00,VWS V14.01,2013-05-13 17:27:00,
2013-05-13 12:32:00,75.4,50.1,30.29,East,93,1.0,5.0,41,0.00,,---,0.00,VWS V14.01,2013-05-13 17:32:00,
2013-05-13 12:36:00,75.9,50.5,30.29,East,85,1.0,5.0,41,0.00,,---,0.00,VWS V14.01,2013-05-13 17:36:00,
2013-05-13 12:37:00,75.7,49.7,30.29,NE,48,1.0,2.0,40,0.00,,---,0.00,VWS V14.01,2013-05-13 17:37:00,
2013-05-13 12:42:00,75.5,48.1,30.28,ENE,76,0.0,5.0,38,0.00,,---,0.00,VWS V14.01,2013-05-13 17:42:00,
2013-05-13 12:47:00,76.1,52.0,30.28,ENE,65,2.0,5.0,43,0.00,,---,0.00,VWS V14.01,2013-05-13 17:47:00,
2013-05-13 12:52:00,75.8,47.0,30.28,East,99,3.0,5.0,36,0.00,,---,0.00,VWS V14.01,2013-05-13 17:52:00,
2013-05-13 12:57:00,75.7,49.0,30.28,ENE,70,2.0,5.0,39,0.00,,---,0.00,VWS V14.01,2013-05-13 17:57:00,
2013-05-13 13:02:00,76.0,52.5,30.27,East,89,2.0,5.0,44,0.00,,---,0.00,VWS V14.01,2013-05-13 18:02:00,
2013-05-13 13:06:00,76.3,54.0,30.27,SW,236,2.0,5.0,46,0.00,,---,0.00,VWS V14.01,2013-05-13 18:06:00,
2013-05-13 13:12:00,77.0,52.2,30.27,East,88,1.0,6.0,42,0.00,,---,0.00,VWS V14.01,2013-05-13 18:12:00,
2013-05-13 13:17:00,76.8,52.0,30.27,East,101,2.0,6.0,42,0.00,,---,0.00,VWS V14.01,2013-05-13 18:17:00,
2013-05-13 13:22:00,77.1,49.6,30.27,ESE,105,1.0,6.0,38,0.00,,---,0.00,VWS V14.01,2013-05-13 18:22:00,
2013-05-13 13:27:00,77.2,49.7,30.26,East,85,2.0,6.0,38,0.00,,---,0.00,VWS V14.01,2013-05-13 18:27:00,
2013-05-13 13:32:00,77.3,49.7,30.26,ESE,108,0.0,6.0,38,0.00,,---,0.00,VWS V14.01,2013-05-13 18:32:00,
2013-05-13 13:36:00,77.3,48.3,30.26,SW,215,1.0,6.0,36,0.00,,---,0.00,VWS V14.01,2013-05-13 18:36:00,
2013-05-13 13:37:00,77.3,48.3,30.26,East,86,0.0,4.0,36,0.00,,---,0.00,VWS V14.01,2013-05-13 18:37:00,
2013-05-13 13:42:00,77.3,52.5,30.26,WSW,241,3.0,4.0,42,0.00,,---,0.00,VWS V14.01,2013-05-13 18:42:00,
2013-05-13 13:47:00,78.2,49.8,30.25,ESE,109,1.0,4.0,37,0.00,,---,0.00,VWS V14.01,2013-05-13 18:47:00,
2013-05-13 13:52:00,77.9,48.8,30.25,East,86,0.0,4.0,36,0.00,,---,0.00,VWS V14.01,2013-05-13 18:52:00,
2013-05-13 13:57:00,78.3,49.9,30.25,WSW,244,1.0,4.0,37,0.00,,---,0.00,VWS V14.01,2013-05-13 18:57:00,
2013-05-13 14:02:00,78.5,50.8,30.25,WSW,238,4.0,6.0,38,0.00,,---,0.00,VWS V14.01,2013-05-13 19:02:00,
2013-05-13 14:06:00,78.1,49.7,30.25,East,83,2.0,6.0,37,0.00,,---,0.00,VWS V14.01,2013-05-13 19:06:00,
2013-05-13 14:07:00,77.9,47.3,30.25,South,190,0.0,3.0,34,0.00,,---,0.00,VWS V14.01,2013-05-13 19:07:00,
2013-05-13 14:12:00,78.1,50.5,30.25,West,269,4.0,5.0,38,0.00,,---,0.00,VWS V14.01,2013-05-13 19:12:00,
2013-05-13 14:17:00,78.7,52.4,30.25,NE,34,0.0,5.0,40,0.00,,---,0.00,VWS V14.01,2013-05-13 19:17:00,
2013-05-13 14:22:00,78.8,52.5,30.25,NW,319,2.0,8.0,40,0.00,,---,0.00,VWS V14.01,2013-05-13 19:22:00,
2013-05-13 14:27:00,79.0,52.6,30.24,ESE,105,0.0,8.0,40,0.00,,---,0.00,VWS V14.01,2013-05-13 19:27:00,
2013-05-13 14:32:00,78.8,49.6,30.24,SE,138,1.0,8.0,36,0.00,,---,0.00,VWS V14.01,2013-05-13 19:32:00,
2013-05-13 14:37:00,78.8,48.9,30.24,WSW,248,3.0,6.0,35,0.00,,---,0.00,VWS V14.01,2013-05-13 19:37:00,
2013-05-13 14:42:00,78.9,48.2,30.24,WSW,246,2.0,7.0,34,0.00,,---,0.00,VWS V14.01,2013-05-13 19:42:00,
2013-05-13 14:47:00,79.0,47.5,30.24,WNW,299,2.0,7.0,33,0.00,,---,0.00,VWS V14.01,2013-05-13 19:47:00,
2013-05-13 14:52:00,79.5,52.4,30.24,WSW,256,0.0,7.0,39,0.00,,---,0.00,VWS V14.01,2013-05-13 19:52:00,
2013-05-13 14:57:00,78.9,45.7,30.24,WSW,238,4.0,7.0,31,0.00,,---,0.00,VWS V14.01,2013-05-13 19:57:00,
2013-05-13 15:02:00,79.1,52.7,30.24,WNW,287,2.0,7.0,40,0.00,,---,0.00,VWS V14.01,2013-05-13 20:02:00,
2013-05-13 15:06:00,79.1,47.6,30.24,SW,229,4.0,7.0,33,0.00,,---,0.00,VWS V14.01,2013-05-13 20:06:00,
2013-05-13 15:07:00,78.8,48.9,30.24,SW,229,3.0,5.0,35,0.00,,---,0.00,VWS V14.01,2013-05-13 20:07:00,
2013-05-13 15:12:00,78.6,49.4,30.23,SW,223,0.0,5.0,36,0.00,,---,0.00,VWS V14.01,2013-05-13 20:12:00,
2013-05-13 15:18:00,79.5,48.7,30.23,SW,236,4.0,6.0,34,0.00,,---,0.00,VWS V14.01,2013-05-13 20:18:00,
2013-05-13 15:23:00,79.6,49.6,30.23,ENE,67,4.0,6.0,35,0.00,,---,0.00,VWS V14.01,2013-05-13 20:23:00,
2013-05-13 15:28:00,79.5,48.7,30.23,ENE,70,2.0,6.0,34,0.00,,---,0.00,VWS V14.01,2013-05-13 20:28:00,
2013-05-13 15:33:00,79.5,50.2,30.23,East,88,3.0,6.0,36,0.00,,---,0.00,VWS V14.01,2013-05-13 20:33:00,
2013-05-13 15:36:00,79.5,50.2,30.23,WNW,294,1.0,6.0,36,0.00,,---,0.00,VWS V14.01,2013-05-13 20:36:00,
2013-05-13 15:38:00,79.5,54.4,30.23,West,265,4.0,5.0,42,0.00,,---,0.00,VWS V14.01,2013-05-13 20:38:00,
2013-05-13 15:43:00,79.8,47.3,30.23,SSE,155,0.0,5.0,32,0.00,,---,0.00,VWS V14.01,2013-05-13 20:43:00,
2013-05-13 15:48:00,79.5,51.7,30.23,SSE,150,1.0,5.0,38,0.00,,---,0.00,VWS V14.01,2013-05-13 20:48:00,
2013-05-13 15:53:00,79.5,47.1,30.22,East,99,1.0,5.0,32,0.00,,---,0.00,VWS V14.01,2013-05-13 20:53:00,
2013-05-13 15:58:00,80.0,48.3,30.22,East,91,2.0,5.0,33,0.00,,---,0.00,VWS V14.01,2013-05-13 20:58:00,
2013-05-13 16:03:00,79.7,50.4,30.22,WSW,255,4.0,6.0,36,0.00,,---,0.00,VWS V14.01,2013-05-13 21:03:00,
2013-05-13 16:06:00,79.9,49.8,30.22,West,261,3.0,6.0,35,0.00,,---,0.00,VWS V14.01,2013-05-13 21:06:00,
2013-05-13 16:08:00,79.9,51.3,30.22,WNW,285,1.0,5.0,37,0.00,,---,0.00,VWS V14.01,2013-05-13 21:08:00,
2013-05-13 16:13:00,79.8,51.2,30.22,WNW,285,4.0,6.0,37,0.00,,---,0.00,VWS V14.01,2013-05-13 21:13:00,
2013-05-13 16:18:00,79.8,51.2,30.22,SW,236,1.0,6.0,37,0.00,,---,0.00,VWS V14.01,2013-05-13 21:18:00,
2013-05-13 16:23:00,80.3,48.6,30.22,WNW,284,3.0,6.0,33,0.00,,---,0.00,VWS V14.01,2013-05-13 21:23:00,
2013-05-13 16:28:00,80.2,53.0,30.22,West,262,2.0,6.0,39,0.00,,---,0.00,VWS V14.01,2013-05-13 21:28:00,
2013-05-13 16:33:00,80.6,52.0,30.21,WNW,282,4.0,6.0,37,0.00,,---,0.00,VWS V14.01,2013-05-13 21:33:00,
2013-05-13 16:38:00,80.1,52.2,30.22,WNW,286,3.0,3.0,38,0.00,,---,0.00,VWS V14.01,2013-05-13 21:38:00,
2013-05-13 16:43:00,80.0,48.3,30.21,East,91,5.0,7.0,33,0.00,,---,0.00,VWS V14.01,2013-05-13 21:43:00,
2013-05-13 16:48:00,79.7,51.2,30.21,East,91,2.0,7.0,37,0.00,,---,0.00,VWS V14.01,2013-05-13 21:48:00,
2013-05-13 16:53:00,79.1,48.3,30.21,SE,128,1.0,7.0,34,0.00,,---,0.00,VWS V14.01,2013-05-13 21:53:00,
2013-05-13 16:58:00,79.2,52.8,30.21,ESE,107,0.0,7.0,40,0.00,,---,0.00,VWS V14.01,2013-05-13 21:58:00,
2013-05-13 17:03:00,79.5,53.8,30.21,West,277,3.0,7.0,41,0.00,,---,0.00,VWS V14.01,2013-05-13 22:03:00,
2013-05-13 17:06:00,79.3,50.1,30.21,ENE,62,0.0,7.0,36,0.00,,---,0.00,VWS V14.01,2013-05-13 22:06:00,
2013-05-13 17:08:00,79.1,49.1,30.21,SW,231,4.0,5.0,35,0.00,,---,0.00,VWS V14.01,2013-05-13 22:08:00,
2013-05-13 17:13:00,79.1,49.9,30.20,North,355,0.0,5.0,36,0.00,,---,0.00,VWS V14.01,2013-05-13 22:13:00,
2013-05-13 17:18:00,79.6,51.8,30.20,West,266,4.0,5.0,38,0.00,,---,0.00,VWS V14.01,2013-05-13 22:18:00,
2013-05-13 17:23:00,79.5,53.8,30.20,SW,229,2.0,5.0,41,0.00,,---,0.00,VWS V14.01,2013-05-13 22:23:00,
2013-05-13 17:28:00,79.0,49.8,30.20,SSW,197,0.0,5.0,36,0.00,,---,0.00,VWS V14.01,2013-05-13 22:28:00,
2013-05-13 17:33:00,79.0,53.3,30.20,SSW,197,1.0,5.0,41,0.00,,---,0.00,VWS V14.01,2013-05-13 22:33:00,
2013-05-13 17:36:00,79.0,53.3,30.20,West,262,1.0,5.0,41,0.00,,---,0.00,VWS V14.01,2013-05-13 22:36:00,
2013-05-13 17:43:00,78.8,52.5,30.20,SW,233,0.0,4.0,40,0.00,,---,0.00,VWS V14.01,2013-05-13 22:43:00,
2013-05-13 17:48:00,78.6,53.0,30.20,South,188,0.0,4.0,41,0.00,,---,0.00,VWS V14.01,2013-05-13 22:48:00,
2013-05-13 17:53:00,79.0,50.5,30.20,SW,216,2.0,4.0,37,0.00,,---,0.00,VWS V14.01,2013-05-13 22:53:00,
2013-05-13 17:58:00,78.3,49.9,30.19,SW,216,0.0,4.0,37,0.00,,---,0.00,VWS V14.01,2013-05-13 22:58:00,
2013-05-13 18:03:00,77.7,47.9,30.19,SW,219,0.0,4.0,35,0.00,,---,0.00,VWS V14.01,2013-05-13 23:03:00,
2013-05-13 18:06:00,77.9,51.0,30.19,West,261,0.0,4.0,39,0.00,,---,0.00,VWS V14.01,2013-05-13 23:06:00,
2013-05-13 18:08:00,77.9,51.0,30.19,West,261,0.0,1.0,39,0.00,,---,0.00,VWS V14.01,2013-05-13 23:08:00,
2013-05-13 18:13:00,77.3,47.5,30.19,SSE,159,0.0,2.0,35,0.00,,---,0.00,VWS V14.01,2013-05-13 23:13:00,
2013-05-13 18:18:00,77.5,52.0,30.19,SSE,159,0.0,2.0,41,0.00,,---,0.00,VWS V14.01,2013-05-13 23:18:00,
2013-05-13 18:23:00,77.1,52.9,30.19,South,182,0.0,2.0,43,0.00,,---,0.00,VWS V14.01,2013-05-13 23:23:00,
2013-05-13 18:28:00,76.9,54.0,30.19,South,182,0.0,2.0,45,0.00,,---,0.00,VWS V14.01,2013-05-13 23:28:00,
2013-05-13 18:33:00,76.6,50.5,30.19,SE,144,1.0,2.0,40,0.00,,---,0.00,VWS V14.01,2013-05-13 23:33:00,
2013-05-13 18:36:00,76.3,50.9,30.19,SE,143,0.0,2.0,41,0.00,,---,0.00,VWS V14.01,2013-05-13 23:36:00,
2013-05-13 18:43:00,76.2,52.7,30.19,SE,144,0.0,0.0,44,0.00,,---,0.00,VWS V14.01,2013-05-13 23:43:00,
2013-05-13 18:48:00,75.6,56.8,30.19,SE,144,0.0,0.0,52,0.00,,---,0.00,VWS V14.01,2013-05-13 23:48:00,
2013-05-13 18:53:00,75.3,55.9,30.19,SE,138,0.0,0.0,51,0.00,,---,0.00,VWS V14.01,2013-05-13 23:53:00,
2013-05-13 18:58:00,74.6,55.8,30.19,ESE,117,0.0,1.0,52,0.00,,---,0.00,VWS V14.01,2013-05-13 23:58:00,
2013-05-13 19:03:00,74.0,55.3,30.19,SSW,205,0.0,1.0,52,0.00,,---,0.00,VWS V14.01,2013-05-14 00:03:00,
2013-05-13 19:06:00,73.7,57.0,30.19,SSW,205,0.0,1.0,56,0.00,,---,0.00,VWS V14.01,2013-05-14 00:06:00,
2013-05-13 19:08:00,73.4,55.8,30.19,SSW,205,0.0,0.0,54,0.00,,---,0.00,VWS V14.01,2013-05-14 00:08:00,
2013-05-13 19:13:00,72.8,56.2,30.19,SSW,205,0.0,0.0,56,0.00,,---,0.00,VWS V14.01,2013-05-14 00:13:00,
2013-05-13 19:18:00,72.4,57.8,30.19,SSW,205,0.0,0.0,60,0.00,,---,0.00,VWS V14.01,2013-05-14 00:18:00,
2013-05-13 19:23:00,71.6,57.5,30.19,WSW,256,0.0,0.0,61,0.00,,---,0.00,VWS V14.01,2013-05-14 00:23:00,
2013-05-13 19:28:00,71.0,57.3,30.19,WSW,257,0.0,1.0,62,0.00,,---,0.00,VWS V14.01,2013-05-14 00:28:00,
2013-05-13 19:33:00,70.4,58.5,30.19,WSW,257,0.0,1.0,66,0.00,,---,0.00,VWS V14.01,2013-05-14 00:33:00,
2013-05-13 19:38:00,69.9,58.5,30.19,WSW,243,0.0,0.0,67,0.00,,---,0.00,VWS V14.01,2013-05-14 00:38:00,
2013-05-13 19:43:00,69.4,58.8,30.19,WSW,243,0.0,0.0,69,0.00,,---,0.00,VWS V14.01,2013-05-14 00:43:00,
2013-05-13 19:48:00,68.8,57.4,30.19,WSW,243,0.0,0.0,67,0.00,,---,0.00,VWS V14.01,2013-05-14 00:48:00,
2013-05-13 19:53:00,68.3,58.2,30.19,NW,320,0.0,0.0,70,0.00,,---,0.00,VWS V14.01,2013-05-14 00:53:00,
2013-05-13 19:58:00,67.8,57.7,30.19,NW,320,0.0,0.0,70,0.00,,---,0.00,VWS V14.01,2013-05-14 00:58:00,
2013-05-13 20:03:00,67.3,57.6,30.19,NW,320,0.0,0.0,71,0.00,,---,0.00,VWS V14.01,2013-05-14 01:03:00,
2013-05-13 20:08:00,66.8,57.5,30.19,NW,320,0.0,0.0,72,0.00,,---,0.00,VWS V14.01,2013-05-14 01:08:00,
2013-05-13 20:13:00,66.2,57.7,30.19,NW,320,0.0,0.0,74,0.00,,---,0.00,VWS V14.01,2013-05-14 01:13:00,
2013-05-13 20:18:00,65.8,57.7,30.19,NW,320,0.0,0.0,75,0.00,,---,0.00,VWS V14.01,2013-05-14 01:18:00,
2013-05-13 20:23:00,65.4,57.7,30.19,NW,320,0.0,0.0,76,0.00,,---,0.00,VWS V14.01,2013-05-14 01:23:00,
2013-05-13 20:28:00,65.1,58.1,30.19,NW,320,0.0,0.0,78,0.00,,---,0.00,VWS V14.01,2013-05-14 01:28:00,
2013-05-13 20:33:00,64.8,57.8,30.19,NW,320,0.0,0.0,78,0.00,,---,0.00,VWS V14.01,2013-05-14 01:33:00,
2013-05-13 20:36:00,64.6,58.0,30.19,NW,320,0.0,0.0,79,0.00,,---,0.00,VWS V14.01,2013-05-14 01:36:00,
2013-05-13 20:43:00,64.1,57.8,30.20,NW,320,0.0,0.0,80,0.00,,---,0.00,VWS V14.01,2013-05-14 01:43:00,
2013-05-13 20:48:00,63.8,57.5,30.20,NW,320,0.0,0.0,80,0.00,,---,0.00,VWS V14.01,2013-05-14 01:48:00,
2013-05-13 20:53:00,63.6,57.7,30.20,NW,320,0.0,0.0,81,0.00,,---,0.00,VWS V14.01,2013-05-14 01:53:00,
2013-05-13 20:58:00,63.4,57.8,30.20,NW,320,0.0,0.0,82,0.00,,---,0.00,VWS V14.01,2013-05-14 01:58:00,
2013-05-13 21:03:00,63.1,57.2,30.20,NW,320,0.0,0.0,81,0.00,,---,0.00,VWS V14.01,2013-05-14 02:03:00,
2013-05-13 21:06:00,62.9,57.3,30.20,NW,320,0.0,0.0,82,0.00,,---,0.00,VWS V14.01,2013-05-14 02:06:00,
2013-05-13 21:14:00,62.5,56.9,30.20,NW,320,0.0,0.0,82,0.00,,---,0.00,VWS V14.01,2013-05-14 02:14:00,
2013-05-13 21:19:00,62.3,57.1,30.20,NW,320,0.0,0.0,83,0.00,,---,0.00,VWS V14.01,2013-05-14 02:19:00,
2013-05-13 21:24:00,62.2,57.3,30.20,NW,320,0.0,0.0,84,0.00,,---,0.00,VWS V14.01,2013-05-14 02:24:00,
2013-05-13 21:29:00,61.9,57.0,30.20,NW,320,0.0,0.0,84,0.00,,---,0.00,VWS V14.01,2013-05-14 02:29:00,
2013-05-13 21:34:00,61.6,56.7,30.20,NW,320,0.0,0.0,84,0.00,,---,0.00,VWS V14.01,2013-05-14 02:34:00,
2013-05-13 21:36:00,61.5,57.0,30.20,NW,320,0.0,0.0,85,0.00,,---,0.00,VWS V14.01,2013-05-14 02:36:00,
2013-05-13 21:39:00,61.4,56.9,30.20,NW,320,0.0,0.0,85,0.00,,---,0.00,VWS V14.01,2013-05-14 02:39:00,
2013-05-13 21:44:00,61.3,56.8,30.20,NW,320,0.0,0.0,85,0.00,,---,0.00,VWS V14.01,2013-05-14 02:44:00,
2013-05-13 21:49:00,61.1,56.6,30.20,NW,320,0.0,0.0,85,0.00,,---,0.00,VWS V14.01,2013-05-14 02:49:00,
2013-05-13 21:54:00,60.9,56.7,30.20,NW,320,0.0,0.0,86,0.00,,---,0.00,VWS V14.01,2013-05-14 02:54:00,
2013-05-13 21:59:00,60.7,56.5,30.20,NW,320,0.0,0.0,86,0.00,,---,0.00,VWS V14.01,2013-05-14 02:59:00,
2013-05-13 22:04:00,60.4,56.5,30.20,NW,320,0.0,0.0,87,0.00,,---,0.00,VWS V14.01,2013-05-14 03:04:00,
2013-05-13 22:06:00,60.2,56.6,30.20,NW,320,0.0,0.0,88,0.00,,---,0.00,VWS V14.01,2013-05-14 03:06:00,
2013-05-13 22:09:00,60.1,56.8,30.20,NW,320,0.0,0.0,89,0.00,,---,0.00,VWS V14.01,2013-05-14 03:09:00,
2013-05-13 22:14:00,59.8,56.6,30.20,NW,320,0.0,0.0,89,0.00,,---,0.00,VWS V14.01,2013-05-14 03:14:00,
2013-05-13 22:19:00,59.7,56.5,30.20,NW,320,0.0,0.0,89,0.00,,---,0.00,VWS V14.01,2013-05-14 03:19:00,
2013-05-13 22:24:00,59.6,56.0,30.20,NW,320,0.0,0.0,88,0.00,,---,0.00,VWS V14.01,2013-05-14 03:24:00,
2013-05-13 22:29:00,59.5,56.0,30.21,NW,320,0.0,0.0,88,0.00,,---,0.00,VWS V14.01,2013-05-14 03:29:00,
2013-05-13 22:34:00,59.4,56.2,30.21,NW,320,0.0,0.0,89,0.00,,---,0.00,VWS V14.01,2013-05-14 03:34:00,
2013-05-13 22:36:00,59.4,56.2,30.21,NW,320,0.0,0.0,89,0.00,,---,0.00,VWS V14.01,2013-05-14 03:36:00,
2013-05-13 22:39:00,59.2,56.0,30.21,NW,320,0.0,0.0,89,0.00,,---,0.00,VWS V14.01,2013-05-14 03:39:00,
2013-05-13 22:44:00,59.0,56.1,30.21,NW,320,0.0,0.0,90,0.00,,---,0.00,VWS V14.01,2013-05-14 03:44:00,
2013-05-13 22:49:00,58.9,55.7,30.21,NW,320,0.0,0.0,89,0.00,,---,0.00,VWS V14.01,2013-05-14 03:49:00,
2013-05-13 22:54:00,58.9,55.7,30.21,NW,320,0.0,0.0,89,0.00,,---,0.00,VWS V14.01,2013-05-14 03:54:00,
2013-05-13 22:59:00,58.9,55.7,30.21,NW,320,0.0,0.0,89,0.00,,---,0.00,VWS V14.01,2013-05-14 03:59:00,
2013-05-13 23:04:00,58.7,55.5,30.21,NW,320,0.0,0.0,89,0.00,,---,0.00,VWS V14.01,2013-05-14 04:04:00,
2013-05-13 23:06:00,58.5,55.3,30.20,NW,320,0.0,0.0,89,0.00,,---,0.00,VWS V14.01,2013-05-14 04:06:00,
2013-05-13 23:09:00,58.3,55.4,30.21,NW,320,0.0,0.0,90,0.00,,---,0.00,VWS V14.01,2013-05-14 04:09:00,
2013-05-13 23:14:00,58.4,55.5,30.21,NW,320,0.0,0.0,90,0.00,,---,0.00,VWS V14.01,2013-05-14 04:14:00,
2013-05-13 23:19:00,58.4,55.5,30.21,NW,320,0.0,0.0,90,0.00,,---,0.00,VWS V14.01,2013-05-14 04:19:00,
2013-05-13 23:24:00,58.2,55.3,30.21,NW,320,0.0,0.0,90,0.00,,---,0.00,VWS V14.01,2013-05-14 04:24:00,
2013-05-13 23:29:00,58.0,55.1,30.21,NW,320,0.0,0.0,90,0.00,,---,0.00,VWS V14.01,2013-05-14 04:29:00,
2013-05-13 23:34:00,57.8,54.9,30.21,NW,320,0.0,0.0,90,0.00,,---,0.00,VWS V14.01,2013-05-14 04:34:00,
2013-05-13 23:36:00,57.7,54.8,30.22,NW,320,0.0,0.0,90,0.00,,---,0.00,VWS V14.01,2013-05-14 04:36:00,
2013-05-13 23:39:00,57.7,54.8,30.22,NW,320,0.0,0.0,90,0.00,,---,0.00,VWS V14.01,2013-05-14 04:39:00,
2013-05-13 23:44:00,57.5,54.6,30.22,NW,320,0.0,0.0,90,0.00,,---,0.00,VWS V14.01,2013-05-14 04:44:00,
2013-05-13 23:49:00,57.5,54.9,30.22,NW,320,0.0,0.0,91,0.00,,---,0.00,VWS V14.01,2013-05-14 04:49:00,
2013-05-13 23:54:00,57.6,55.0,30.22,NW,320,0.0,0.0,91,0.00,,---,0.00,VWS V14.01,2013-05-14 04:54:00,
2013-05-13 23:59:00,57.5,54.9,30.22,NW,320,0.0,0.0,91,0.00,,---,0.00,VWS V14.01,2013-05-14 04:59:00,